Overview Statistics Trail Chart Weather Telemetry Raw packets
 

This is the latest recevied weather packets stored in our database for station/object DK6MR-13. If no packets are shown the sender has not sent any weather packets the latest 10 day(s).

<< 1 2 3 4 5 >>
Time Temp. Humidity Pressure Rain* Wind** Luminosity Snow
1778070371 11.11° C 91% 1005.4 hPa 0 mm - - -
1778069470 11.11° C 91% 1005.1 hPa 0 mm - - -
1778068569 11.11° C 91% 1005.1 hPa 0 mm - - -
1778067668 11.11° C 91% 1005.1 hPa 0 mm - - -
1778066767 11.11° C 91% 1004.7 hPa 0 mm - - -
1778065867 11.67° C 91% 1004.7 hPa 1.78 mm - - -
1778064966 11.67° C 91% 1004.7 hPa 0 mm - - -
1778064065 11.67° C 91% 1004.7 hPa 0 mm - - -
1778063164 11.67° C 91% 1004.7 hPa 0 mm - - -
1778062263 11.67° C 91% 1004.4 hPa 0 mm - - -
1778061362 11.67° C 91% 1004.4 hPa 0 mm - - -
1778060461 11.67° C 91% 1004.4 hPa 0 mm - - -
1778059560 11.67° C 91% 1004 hPa 0 mm - - -
1778058659 11.67° C 91% 1004 hPa 0 mm - - -
1778057758 11.67° C 91% 1004.4 hPa 1.27 mm - - -
1778056857 11.67° C 91% 1004 hPa 0 mm - - -
1778055957 11.67° C 91% 1004 hPa 0 mm - - -
1778055056 11.11° C 91% 1004 hPa 0 mm - - -
1778054155 11.67° C 92% 1004 hPa 0 mm - - -
1778053254 11.11° C 92% 1003.7 hPa 0 mm - - -
1778052353 11.11° C 92% 1003.4 hPa 0 mm - - -
1778051452 11.11° C 92% 1003.7 hPa 0 mm - - -
1778050551 11.11° C 92% 1003.4 hPa 1.78 mm - - -
1778049650 11.11° C 92% 1003.4 hPa 1.27 mm - - -
1778048749 11.11° C 92% 1003.4 hPa 1.78 mm - - -

* Rain latest hour (hover to see other rain measurements)
** Current wind speed in m/s (hover to see current wind gust speed)